[keps] orb07305.amsat
Ray Hoad
r.hoad at att.net
Thu Nov 1 17:47:58 PST 2007
SB KEPS @ AMSAT $ORB07305.O
Orbital Elements 07305.OSCAR
HR AMSAT ORBITAL ELEMENTS FOR OSCAR SATELLITES
FROM WA5QGD FORT WORTH,TX November 1, 2007
Send Subscribe/unsubscribe to KEPS at
http://www.amsat.org/mailman/listinfo/keps
BID: ORB07305.O
TO ALL RADIO AMATEURS BT
Satellite: AO-07
Catalog number: 07530
Epoch time: 07304.69039508
Element set: 0016
Inclination: 101.5000 deg
RA of node: 338.6069 deg
Eccentricity: 0.0011949
Arg of perigee: 350.7873 deg
Mean anomaly: 009.2976 deg
Mean motion: 12.53572755 rev/day
Decay rate: -2.8e-07 rev/day^2
Epoch rev: 50822
Checksum: 296
Satellite: AO-10
Catalog number: 14129
Epoch time: 07303.08054434
Element set: 0438
Inclination: 026.0320 deg
RA of node: 248.6856 deg
Eccentricity: 0.6053649
Arg of perigee: 068.7830 deg
Mean anomaly: 343.6293 deg
Mean motion: 02.05867397 rev/day
Decay rate: 1.58e-06 rev/day^2
Epoch rev: 18334
Checksum: 311
Satellite: UO-11
Catalog number: 14781
Epoch time: 07304.66367560
Element set: 0510
Inclination: 098.1805 deg
RA of node: 329.9373 deg
Eccentricity: 0.0010203
Arg of perigee: 092.3246 deg
Mean anomaly: 267.9088 deg
Mean motion: 14.79590830 rev/day
Decay rate: 2.94e-06 rev/day^2
Epoch rev: 26991
Checksum: 319
Satellite: RS-15
Catalog number: 23439
Epoch time: 07304.92289643
Element set: 0094
Inclination: 064.8159 deg
RA of node: 145.7950 deg
Eccentricity: 0.0154760
Arg of perigee: 165.9968 deg
Mean anomaly: 194.5321 deg
Mean motion: 11.27552695 rev/day
Decay rate: -3.9e-07 rev/day^2
Epoch rev: 52911
Checksum: 338
Satellite: FO-29
Catalog number: 24278
Epoch time: 07305.90486247
Element set: 626
Inclination: 098.5718 deg
RA of node: 247.1623 deg
Eccentricity: 0.0351401
Arg of perigee: 086.5756 deg
Mean anomaly: 277.5504 deg
Mean motion: 13.52932665 rev/day
Decay rate: -8.9e-07 rev/day^2
Epoch rev: 55352
Checksum: 338
Satellite: SO-33
Catalog number: 25509
Epoch time: 07304.71073318
Element set: 0054
Inclination: 031.4294 deg
RA of node: 173.8569 deg
Eccentricity: 0.0355580
Arg of perigee: 181.0107 deg
Mean anomaly: 178.9853 deg
Mean motion: 14.28186600 rev/day
Decay rate: 2.78e-06 rev/day^2
Epoch rev: 47078
Checksum: 316
Satellite: AO-40
Catalog number: 26609
Epoch time: 07304.49464027
Element set: 961
Inclination: 006.8647 deg
RA of node: 113.1641 deg
Eccentricity: 0.7938489
Arg of perigee: 018.8809 deg
Mean anomaly: 358.7098 deg
Mean motion: 01.25583441 rev/day
Decay rate: -4.4e-07 rev/day^2
Epoch rev: 3215
Checksum: 327
Satellite: VO-52
Catalog number: 28650
Epoch time: 07304.68969924
Element set: 0767
Inclination: 097.8186 deg
RA of node: 012.2544 deg
Eccentricity: 0.0027395
Arg of perigee: 166.4699 deg
Mean anomaly: 193.7281 deg
Mean motion: 14.81375395 rev/day
Decay rate: 2.21e-06 rev/day^2
Epoch rev: 13462
Checksum: 347
Satellite: PO-63
Catalog number: 29712
Epoch time: 07305.84708925
Element set: 873
Inclination: 097.9072 deg
RA of node: 002.9998 deg
Eccentricity: 0.0015140
Arg of perigee: 046.9010 deg
Mean anomaly: 313.3451 deg
Mean motion: 14.79878759 rev/day
Decay rate: 6.92e-06 rev/day^2
Epoch rev: 4369
Checksum: 342
/EX
SB KEPS @ AMSAT $ORB07305.D
Orbital Elements 07305.MICROS
HR AMSAT ORBITAL ELEMENTS FOR THE MICROSATS
FROM WA5QGD FORT WORTH,TX November 1, 2007
Send Subscribe/unsubscribe to KEPS at
http://www.amsat.org/mailman/listinfo/keps
BID: ORB07305.D
TO ALL RADIO AMATEURS BT
Satellite: AO-16
Catalog number: 20439
Epoch time: 07305.62252043
Element set: 169
Inclination: 098.2082 deg
RA of node: 292.6891 deg
Eccentricity: 0.0011478
Arg of perigee: 133.2920 deg
Mean anomaly: 226.9225 deg
Mean motion: 14.31774138 rev/day
Decay rate: -3.0e-08 rev/day^2
Epoch rev: 92821
Checksum: 292
Satellite: LO-19
Catalog number: 20442
Epoch time: 07304.86939721
Element set: 0093
Inclination: 098.1869 deg
RA of node: 301.1036 deg
Eccentricity: 0.0012412
Arg of perigee: 134.1737 deg
Mean anomaly: 226.0456 deg
Mean motion: 14.32013911 rev/day
Decay rate: 3.8e-07 rev/day^2
Epoch rev: 92825
Checksum: 282
Satellite: AO-27
Catalog number: 22825
Epoch time: 07305.41502896
Element set: 816
Inclination: 098.3527 deg
RA of node: 269.4420 deg
Eccentricity: 0.0007916
Arg of perigee: 211.4677 deg
Mean anomaly: 148.6023 deg
Mean motion: 14.29220648 rev/day
Decay rate: -1.00e-06 rev/day^2
Epoch rev: 73509
Checksum: 303
Satellite: IO-26
Catalog number: 22826
Epoch time: 07304.73873744
Element set: 514
Inclination: 098.3440 deg
RA of node: 269.8062 deg
Eccentricity: 0.0008205
Arg of perigee: 211.9785 deg
Mean anomaly: 148.0903 deg
Mean motion: 14.29468445 rev/day
Decay rate: 2.0e-07 rev/day^2
Epoch rev: 73508
Checksum: 312
Satellite: PO-28
Catalog number: 22829
Epoch time: 07304.90770874
Element set: 0791
Inclination: 098.3335 deg
RA of node: 271.1139 deg
Eccentricity: 0.0009516
Arg of perigee: 182.6074 deg
Mean anomaly: 177.5043 deg
Mean motion: 14.30170162 rev/day
Decay rate: -5.5e-07 rev/day^2
Epoch rev: 73535
Checksum: 307
Satellite: GO-32
Catalog number: 25397
Epoch time: 07304.62746547
Element set: 0441
Inclination: 098.3970 deg
RA of node: 345.7559 deg
Eccentricity: 0.0001280
Arg of perigee: 152.3300 deg
Mean anomaly: 207.7953 deg
Mean motion: 14.23132723 rev/day
Decay rate: -9.0e-07 rev/day^2
Epoch rev: 48356
Checksum: 302
Satellite: MO-46
Catalog number: 26548
Epoch time: 07305.46502729
Element set: 936
Inclination: 064.5550 deg
RA of node: 117.9611 deg
Eccentricity: 0.0001611
Arg of perigee: 351.1197 deg
Mean anomaly: 008.9916 deg
Mean motion: 14.83190239 rev/day
Decay rate: 1.97e-06 rev/day^2
Epoch rev: 38389
Checksum: 321
Satellite: NO-44
Catalog number: 26931
Epoch time: 07304.66141487
Element set: 0722
Inclination: 067.0514 deg
RA of node: 155.9343 deg
Eccentricity: 0.0005675
Arg of perigee: 253.6316 deg
Mean anomaly: 106.4122 deg
Mean motion: 14.29501865 rev/day
Decay rate: 1.51e-06 rev/day^2
Epoch rev: 31760
Checksum: 284
Satellite: SO-50
Catalog number: 27607
Epoch time: 07304.67809170
Element set: 444
Inclination: 064.5602 deg
RA of node: 030.6053 deg
Eccentricity: 0.0070237
Arg of perigee: 326.3538 deg
Mean anomaly: 033.3104 deg
Mean motion: 14.71296838 rev/day
Decay rate: -3.9e-07 rev/day^2
Epoch rev: 26120
Checksum: 278
Satellite: CO-55
Catalog number: 27844
Epoch time: 07304.60946046
Element set: 156
Inclination: 098.7200 deg
RA of node: 311.0576 deg
Eccentricity: 0.0010741
Arg of perigee: 059.7255 deg
Mean anomaly: 300.4972 deg
Mean motion: 14.20540237 rev/day
Decay rate: 9.2e-07 rev/day^2
Epoch rev: 22484
Checksum: 286
Satellite: CO-57
Catalog number: 27848
Epoch time: 07304.57715030
Element set: 112
Inclination: 098.7189 deg
RA of node: 310.1759 deg
Eccentricity: 0.0010625
Arg of perigee: 062.3466 deg
Mean anomaly: 297.8786 deg
Mean motion: 14.20354833 rev/day
Decay rate: 1.7e-07 rev/day^2
Epoch rev: 22481
Checksum: 312
Satellite: AO-51
Catalog number: 28375
Epoch time: 07305.81573334
Element set: 948
Inclination: 098.0978 deg
RA of node: 337.9438 deg
Eccentricity: 0.0084303
Arg of perigee: 124.6915 deg
Mean anomaly: 236.2258 deg
Mean motion: 14.40584889 rev/day
Decay rate: 1.7e-07 rev/day^2
Epoch rev: 17552
Checksum: 343
Satellite: CO-56
Catalog number: 28941
Epoch time: 07305.21656725
Element set: 633
Inclination: 098.1138 deg
RA of node: 021.9840 deg
Eccentricity: 0.0207360
Arg of perigee: 145.7441 deg
Mean anomaly: 215.7484 deg
Mean motion: 15.45237759 rev/day
Decay rate: 3.2623e-04 rev/day^2
Epoch rev: 9455
Checksum: 320
Satellite: HO-59
Catalog number: 29484
Epoch time: 07305.70932139
Element set: 818
Inclination: 098.2644 deg
RA of node: 017.3541 deg
Eccentricity: 0.0168927
Arg of perigee: 128.7954 deg
Mean anomaly: 232.8408 deg
Mean motion: 15.62443328 rev/day
Decay rate: 6.4539e-04 rev/day^2
Epoch rev: 6246
Checksum: 348
Satellite: NO-61
Catalog number: 29664
Epoch time: 07305.77861281
Element set: 611
Inclination: 051.6295 deg
RA of node: 081.4278 deg
Eccentricity: 0.0006455
Arg of perigee: 179.6996 deg
Mean anomaly: 180.4048 deg
Mean motion: 16.05619609 rev/day
Decay rate: 1.09274e-03 rev/day^2
Epoch rev: 5014
Checksum: 330
Satellite: CP4
Catalog number: 31122
Epoch time: 07304.62414395
Element set: 0176
Inclination: 098.0725 deg
RA of node: 013.4018 deg
Eccentricity: 0.0085686
Arg of perigee: 322.3564 deg
Mean anomaly: 037.1610 deg
Mean motion: 14.55046037 rev/day
Decay rate: 5.49e-06 rev/day^2
Epoch rev: 02869
Checksum: 286
Satellite: CP3
Catalog number: 31128
Epoch time: 07304.43395542
Element set: 0169
Inclination: 098.0670 deg
RA of node: 012.2303 deg
Eccentricity: 0.0102063
Arg of perigee: 325.5531 deg
Mean anomaly: 033.9081 deg
Mean motion: 14.51877935 rev/day
Decay rate: -4.8e-07 rev/day^2
Epoch rev: 02859
Checksum: 281
Satellite: LIBERT
Catalog number: 31129
Epoch time: 07305.59352905
Element set: 481
Inclination: 098.0700 deg
RA of node: 013.3655 deg
Eccentricity: 0.0102144
Arg of perigee: 322.2287 deg
Mean anomaly: 037.1760 deg
Mean motion: 14.51970767 rev/day
Decay rate: 3.36e-06 rev/day^2
Epoch rev: 2874
Checksum: 280
/EX
SB KEPS @ AMSAT $ORB07305.W
Orbital Elements 07305.WEATHER
HR AMSAT ORBITAL ELEMENTS FOR WEATHER SATELLITES
FROM WA5QGD FORT WORTH,TX November 1, 2007
Send Subscribe/unsubscribe to KEPS at
http://www.amsat.org/mailman/listinfo/keps
BID: ORB07305.W
TO ALL RADIO AMATEURS BT
Satellite: NOAA-10
Catalog number: 16969
Epoch time: 07304.64858501
Element set: 0872
Inclination: 098.7403 deg
RA of node: 321.8840 deg
Eccentricity: 0.0012889
Arg of perigee: 127.2635 deg
Mean anomaly: 232.9724 deg
Mean motion: 14.27339118 rev/day
Decay rate: 4.9e-07 rev/day^2
Epoch rev: 09869
Checksum: 335
Satellite: NOAA-11
Catalog number: 19531
Epoch time: 07304.83022570
Element set: 0904
Inclination: 098.8087 deg
RA of node: 032.2713 deg
Eccentricity: 0.0011798
Arg of perigee: 005.9146 deg
Mean anomaly: 354.2158 deg
Mean motion: 14.14853359 rev/day
Decay rate: -2.56e-06 rev/day^2
Epoch rev: 98547
Checksum: 312
